This is the latest recevied weather packets stored in our database for station/object WB4ROX. If no packets are shown the sender has not sent any weather packets the latest 10 day(s).
| Time | Temp. | Humidity | Pressure | Rain* | Wind** | Luminosity | Snow |
|---|---|---|---|---|---|---|---|
| 1777994131 | 16.11° C | 33% | 1019.7 hPa | 0 mm | - | 485 W/m² | - |
| 1777993829 | 16.11° C | 33% | 1019.6 hPa | 0 mm | - | 517 W/m² | - |
| 1777993525 | 15.56° C | 33% | 1019.8 hPa | 0 mm | - | 614 W/m² | - |
| 1777993221 | 15.56° C | 33% | 1019.7 hPa | 0 mm | - | 578 W/m² | - |
| 1777992917 | 15.56° C | 33% | 1019.6 hPa | 0 mm | - | 580 W/m² | - |
| 1777992616 | 15° C | 37% | 1019.6 hPa | 0 mm | - | 569 W/m² | - |
| 1777992313 | 15° C | 37% | 1019.4 hPa | 0 mm | - | 582 W/m² | - |
| 1777992010 | 15° C | 37% | 1019.6 hPa | 0 mm | - | 617 W/m² | - |
| 1777991709 | 15° C | 38% | 1019.7 hPa | 0 mm | - | 623 W/m² | - |
| 1777991405 | 14.44° C | 40% | 1019.7 hPa | 0 mm | - | 563 W/m² | - |
| 1777991102 | 15° C | 41% | 1019.6 hPa | 0 mm | - | 460 W/m² | - |
| 1777990799 | 14.44° C | 42% | 1019.6 hPa | 0 mm | - | 547 W/m² | - |
| 1777990496 | 13.89° C | 43% | 1019.7 hPa | 0 mm | - | 510 W/m² | - |
| 1777989890 | 13.33° C | 44% | 1019.7 hPa | 0 mm | - | 469 W/m² | - |
| 1777989587 | 13.33° C | 43% | 1019.4 hPa | 0 mm | - | 452 W/m² | - |
| 1777989283 | 13.33° C | 44% | 1019.6 hPa | 0 mm | - | 433 W/m² | - |
| 1777988980 | 13.33° C | 45% | 1019.6 hPa | 0 mm | - | 451 W/m² | - |
| 1777988676 | 13.33° C | 46% | 1019.4 hPa | 0 mm | - | 420 W/m² | - |
| 1777988373 | 12.78° C | 46% | 1019.3 hPa | 0 mm | - | 391 W/m² | - |
| 1777988070 | 12.78° C | 47% | 1019.1 hPa | 0 mm | - | 369 W/m² | - |
| 1777987765 | 12.78° C | 47% | 1019.3 hPa | 0 mm | - | 318 W/m² | - |
| 1777987462 | 12.78° C | 48% | 1019.3 hPa | 0 mm | - | 348 W/m² | - |
| 1777987160 | 11.67° C | 50% | 1019.3 hPa | 0 mm | - | 338 W/m² | - |
| 1777986857 | 11.67° C | 51% | 1019.3 hPa | 0 mm | - | 216 W/m² | - |
| 1777986555 | 11.67° C | 52% | 1019.3 hPa | 0 mm | - | 184 W/m² | - |
* Rain latest hour (hover to see other rain measurements)
** Current wind speed in m/s (hover to see current wind gust speed)